Location: Catstown
(52.4386°N, 7.2633°W)
Time: 02:05:07
(UTC+00:00)

Terra - Pass Details

Date: 18 September 2020
Orbit: 701 x 703 km, 98.2° (Epoch: 30 October)

Event Time Altitude Azimuth Distance (km) Brightness Sun altitude
Exits shadow 20:18:56 12° 63° (ENE) 2,041 3.9 -16.0°
Maximum altitude 20:19:54 13° 50° (NE) 2,001 3.9 -16.1°
Drops below altitude 10° 20:21:55 10° 25° (NNE) 2,185 4.4 -16.4°
Sets 20:25:26 0° 358° (N) 3,108 5.6 -16.9°
